Change the Weather History Date:

Friday, August 9, 2013

  Actual Average Record
Temperature  
Mean Temperature 82 °F -  
Max Temperature 88 °F 86 °F 93 °F (2002)
Min Temperature 77 °F 73 °F 75 °F (2007)
Cooling Degree Days 18    
Growing Degree Days 32 (Base 50)    
Moisture  
Dew Point 76 °F    
Average Humidity 79    
Maximum Humidity 94    
Minimum Humidity 67    
Precipitation  
Precipitation 0.19 in - - ()
Sea Level Pressure  
Sea Level Pressure 29.97 in    
Wind  
Wind Speed 9 mph (East)    
Max Wind Speed 14 mph    
Max Gust Speed 22 mph    
Visibility 9 miles    
Events Rain    
Averages and records for this station are not official NWS values.
T = Trace of Precipitation, MM = Missing Value Source: NWS Daily Summary

Daily Weather History Graph

Daily Weather History Graph

Search for Another Location

Airport or City:

Trip Planner

Search our weather history database for the weather conditions in past years. The results will help you decide how hot, cold, wet, or windy it might be!

Date:

Astronomy

Aug. 09, 2013 Rise Set
Actual Time 6:03 AM AST 6:52 PM AST
Civil Twilight 5:40 AM AST 7:15 PM AST
Nautical Twilight 5:13 AM AST 7:42 PM AST
Astronomical Twilight 4:45 AM AST 8:09 PM AST
Moon 8:13 AM AST (8/9) 8:36 PM AST (8/9)
Length of Visible Light 13h 35m
Length of Day
12h 49m
Waxing Crescent, 7% of the Moon is Illuminated
Aug 9
Waxing Crescent
Aug 14
First Quarter
Aug 20
Full
Aug 28
Last Quarter
Sep 5
New

Hourly Weather History & Observations

Time (AST) Temp. Heat Index Dew Point Humidity Pressure Visibility Wind Dir Wind Speed Gust Speed Precip Events Conditions
12:53 AM 79.0 °F - 75.0 °F 88% 29.96 in 10.0 mi East 5.8 mph - 0.02 in   Mostly Cloudy
1:53 AM 82.0 °F 90.2 °F 77.0 °F 85% 29.95 in 10.0 mi ENE 11.5 mph 19.6 mph 0.01 in   Scattered Clouds
2:53 AM 82.0 °F 89.4 °F 75.9 °F 82% 29.93 in 10.0 mi East 9.2 mph 18.4 mph N/A   Scattered Clouds
3:53 AM 82.0 °F 88.6 °F 75.0 °F 79% 29.94 in 10.0 mi East 10.4 mph - N/A   Partly Cloudy
4:53 AM 82.0 °F 89.4 °F 75.9 °F 82% 29.94 in 10.0 mi East 11.5 mph 18.4 mph N/A   Scattered Clouds
5:53 AM 82.0 °F 88.6 °F 75.0 °F 79% 29.95 in 10.0 mi East 13.8 mph - N/A   Clear
6:53 AM 82.9 °F 90.8 °F 75.9 °F 79% 29.96 in 10.0 mi ENE 11.5 mph - N/A   Clear
7:53 AM 84.0 °F 92.6 °F 75.9 °F 76% 29.98 in 10.0 mi East 10.4 mph - N/A   Partly Cloudy
8:53 AM 84.0 °F 92.6 °F 75.9 °F 76% 29.99 in 10.0 mi East 8.1 mph - N/A   Mostly Cloudy
9:53 AM 87.1 °F 98.8 °F 77.0 °F 72% 29.99 in 10.0 mi ENE 8.1 mph - N/A   Partly Cloudy
10:53 AM 88.0 °F 98.5 °F 75.9 °F 67% 30.00 in 10.0 mi East 12.7 mph - N/A   Clear
11:45 AM 87.8 °F 99.7 °F 77.0 °F 70% 29.99 in 10.0 mi ESE 12.7 mph - N/A   Mostly Cloudy
11:53 AM 88.0 °F 98.5 °F 75.9 °F 67% 29.99 in 10.0 mi East 13.8 mph - N/A   Mostly Cloudy
12:23 PM 84.2 °F 92.3 °F 75.2 °F 74% 30.00 in 10.0 mi NE 8.1 mph 17.3 mph N/A   Scattered Clouds
12:53 PM 87.1 °F 99.8 °F 78.1 °F 74% 29.99 in 10.0 mi ENE 8.1 mph - N/A   Clear
1:53 PM 88.0 °F 101.3 °F 78.1 °F 72% 29.97 in 10.0 mi ENE 6.9 mph - N/A   Partly Cloudy
2:53 PM 88.0 °F 100.2 °F 77.0 °F 70% 29.95 in 10.0 mi East 12.7 mph 18.4 mph N/A   Partly Cloudy
3:53 PM 84.9 °F 93.3 °F 75.0 °F 72% 29.95 in 10.0 mi ENE 8.1 mph - N/A   Clear
4:38 PM 78.8 °F - 73.4 °F 83% 29.97 in 2.0 mi South 10.4 mph 21.9 mph 0.06 in Rain Light Rain
4:40 PM 77.0 °F - 75.2 °F 94% 29.97 in 1.5 mi South 8.1 mph 21.9 mph 0.10 in Rain Heavy Rain
4:43 PM 77.0 °F - 75.2 °F 94% 29.97 in 0.8 mi WSW 4.6 mph - 0.15 in Rain Heavy Rain
4:53 PM 78.1 °F - 75.0 °F 90% 29.96 in 3.0 mi Calm Calm - 0.16 in Rain Light Rain
5:53 PM 79.0 °F - 75.0 °F 88% 29.96 in 10.0 mi ENE 5.8 mph - 0.00 in   Clear
6:53 PM 81.0 °F 87.3 °F 75.9 °F 85% 29.97 in 10.0 mi Calm Calm - N/A   Clear
7:53 PM 82.0 °F 89.4 °F 75.9 °F 82% 29.99 in 10.0 mi East 5.8 mph - N/A   Mostly Cloudy
8:53 PM 82.9 °F 91.8 °F 77.0 °F 82% 29.99 in 10.0 mi East 8.1 mph - N/A   Partly Cloudy
9:53 PM 82.9 °F 91.8 °F 77.0 °F 82% 30.01 in 10.0 mi ENE 9.2 mph - N/A   Partly Cloudy
10:53 PM 82.9 °F 91.8 °F 77.0 °F 82% 30.01 in 10.0 mi East 6.9 mph - N/A   Partly Cloudy
11:53 PM 82.9 °F 90.8 °F 75.9 °F 79% 30.01 in 10.0 mi East 9.2 mph - N/A   Mostly Cloudy